Time,TemperatureF,DewpointF,PressureIn,WindDirection,WindDirectionDegrees,WindSpeedMPH,WindSpeedGustMPH,Humidity,HourlyPrecipIn,Conditions,Clouds,dailyrainin,SoftwareType,DateUTC
2013-08-18 00:03:00,-999.0,-99.9,-100.00,NE,48,3.0,-999.0,-999,-99.99,,,0.00,,2013-08-18 04:03:00,
2013-08-18 00:23:00,66.0,-99.9,-100.00,East,86,2.0,-999.0,-999,-99.99,,,0.00,,2013-08-18 04:23:00,
2013-08-18 00:33:00,66.0,-99.9,-100.00,East,86,2.0,-999.0,-999,-99.99,,,0.00,,2013-08-18 04:33:00,
2013-08-18 00:42:00,66.0,-99.9,-100.00,East,86,2.0,-999.0,-999,-99.99,,,0.00,,2013-08-18 04:42:00,
2013-08-18 01:12:00,66.0,-99.9,-100.00,ESE,104,1.0,-999.0,-999,-99.99,,,0.00,,2013-08-18 05:12:00,
2013-08-18 01:43:00,66.0,-99.9,-100.00,ESE,114,1.0,-999.0,-999,-99.99,,,0.00,,2013-08-18 05:43:00,
2013-08-18 02:11:00,67.0,-99.9,-100.00,ESE,120,1.0,-999.0,-999,-99.99,,,0.00,,2013-08-18 06:11:00,
2013-08-18 02:42:00,67.0,-99.9,-100.00,East,100,1.0,-999.0,-999,-99.99,,,0.00,,2013-08-18 06:42:00,
2013-08-18 03:11:00,67.0,-99.9,-100.00,North,352,0.0,-999.0,-999,-99.99,,,0.00,,2013-08-18 07:11:00,
2013-08-18 03:42:00,67.0,-99.9,-100.00,SE,126,1.0,-999.0,-999,-99.99,,,0.00,,2013-08-18 07:42:00,
2013-08-18 04:12:00,67.0,-99.9,-100.00,North,357,0.0,-999.0,-999,-99.99,,,0.00,,2013-08-18 08:12:00,
2013-08-18 04:22:00,67.0,-99.9,-100.00,WSW,252,1.0,-999.0,-999,-99.99,,,0.00,,2013-08-18 08:22:00,
2013-08-18 04:32:00,67.0,-99.9,-100.00,WSW,252,1.0,-999.0,-999,-99.99,,,0.00,,2013-08-18 08:32:00,
2013-08-18 04:42:00,67.0,-99.9,-100.00,WSW,252,1.0,-999.0,-999,-99.99,,,0.00,,2013-08-18 08:42:00,
2013-08-18 05:11:00,67.0,-99.9,-100.00,South,172,1.0,-999.0,-999,-99.99,,,0.00,,2013-08-18 09:11:00,
2013-08-18 05:43:00,67.0,-99.9,-100.00,SSW,206,1.0,-999.0,-999,-99.99,,,0.00,,2013-08-18 09:43:00,
2013-08-18 06:13:00,67.0,-99.9,-100.00,SSE,156,0.0,-999.0,-999,-99.99,,,0.00,,2013-08-18 10:13:00,
2013-08-18 06:43:00,67.0,-99.9,-100.00,WNW,287,2.0,-999.0,-999,-99.99,,,0.00,,2013-08-18 10:43:00,
2013-08-18 07:11:00,67.0,-99.9,-100.00,South,188,1.0,-999.0,-999,-99.99,,,0.00,,2013-08-18 11:11:00,
2013-08-18 07:42:00,67.0,-99.9,-100.00,SSE,168,1.0,-999.0,-999,-99.99,,,0.00,,2013-08-18 11:42:00,
2013-08-18 08:42:00,67.0,-99.9,-100.00,SW,230,1.0,-999.0,-999,-99.99,,,0.00,,2013-08-18 12:42:00,
2013-08-18 09:42:00,68.0,-99.9,-100.00,South,183,1.0,-999.0,-999,-99.99,,,0.00,,2013-08-18 13:42:00,
2013-08-18 10:42:00,68.0,-99.9,-100.00,SE,141,3.0,-999.0,-999,-99.99,,,0.00,,2013-08-18 14:42:00,
2013-08-18 11:43:00,67.0,-99.9,-100.00,South,174,1.0,-999.0,-999,-99.99,,,0.00,,2013-08-18 15:43:00,
2013-08-18 12:42:00,70.0,-99.9,-100.00,South,177,5.0,-999.0,-999,-99.99,,,0.00,,2013-08-18 16:42:00,
2013-08-18 13:43:00,72.0,-99.9,-100.00,South,190,3.0,-999.0,-999,-99.99,,,0.00,,2013-08-18 17:43:00,
2013-08-18 14:43:00,75.0,-99.9,-100.00,South,184,5.0,-999.0,-999,-99.99,,,0.00,,2013-08-18 18:43:00,
2013-08-18 15:42:00,74.0,-99.9,-100.00,West,270,6.0,-999.0,-999,-99.99,,,0.00,,2013-08-18 19:42:00,
2013-08-18 16:12:00,72.0,-99.9,-100.00,WSW,237,4.0,-999.0,-999,-99.99,,,0.00,,2013-08-18 20:12:00,
2013-08-18 17:42:00,72.0,-99.9,-100.00,SW,226,2.0,-999.0,-999,-99.99,,,0.00,,2013-08-18 21:42:00,
2013-08-18 17:54:00,73.0,-99.9,-100.00,SW,227,2.0,-999.0,-999,-99.99,,,0.00,,2013-08-18 21:54:00,
2013-08-18 18:04:00,73.0,-99.9,-100.00,SW,227,2.0,-999.0,-999,-99.99,,,0.00,,2013-08-18 22:04:00,
2013-08-18 18:42:00,74.0,-99.9,-100.00,WSW,245,2.0,-999.0,-999,-99.99,,,0.00,,2013-08-18 22:42:00,
2013-08-18 18:52:00,74.0,-99.9,-100.00,SW,230,2.0,-999.0,-999,-99.99,,,0.00,,2013-08-18 22:52:00,
2013-08-18 19:02:00,74.0,-99.9,-100.00,SW,230,2.0,-999.0,-999,-99.99,,,0.00,,2013-08-18 23:02:00,
2013-08-18 19:42:00,74.0,-99.9,-100.00,West,263,1.0,-999.0,-999,-99.99,,,-99.99,,2013-08-18 23:42:00,
2013-08-18 20:22:00,73.0,-99.9,-100.00,SSW,209,2.0,-999.0,-999,-99.99,,,-99.99,,2013-08-19 00:22:00,
2013-08-18 20:42:00,73.0,-99.9,-100.00,SW,229,1.0,-999.0,-999,-99.99,,,-99.99,,2013-08-19 00:42:00,
2013-08-18 21:42:00,71.0,-99.9,-100.00,South,186,1.0,-999.0,-999,-99.99,,,0.00,,2013-08-19 01:42:00,
2013-08-18 22:42:00,71.0,-99.9,-100.00,WSW,242,1.0,-999.0,-999,-99.99,,,0.00,,2013-08-19 02:42:00,